date,time,SUV Intensity [MED/Hr],UV Index,Daily total [MED],Since Last [MED]
10/05/2023,00:01:35,-0.000,0.0,0.0,0.0
10/05/2023,00:02:35,-0.001,0.0,0.0,0.0
10/05/2023,00:03:36,0.000,0.0,0.0,0.0
10/05/2023,00:04:36,0.000,0.0,0.0,0.0
10/05/2023,00:05:36,0.000,0.0,0.0,0.0
10/05/2023,00:06:35,-0.001,0.0,0.0,0.0
10/05/2023,00:07:35,-0.000,0.0,0.0,0.0
10/05/2023,00:08:35,0.000,0.0,0.0,0.0
10/05/2023,00:09:35,-0.001,0.0,0.0,0.0
10/05/2023,00:10:36,0.000,0.0,0.0,0.0
10/05/2023,00:11:36,0.000,0.0,0.0,0.0
10/05/2023,00:12:35,0.000,0.0,0.0,0.0
10/05/2023,00:13:35,0.001,0.0,0.0,0.0
10/05/2023,00:14:35,-0.001,0.0,0.0,0.0
10/05/2023,00:15:35,0.001,0.0,0.0,0.0
10/05/2023,00:16:35,0.000,0.0,0.0,0.0
10/05/2023,00:17:35,0.000,0.0,0.0,0.0
10/05/2023,00:18:35,-0.000,0.0,0.0,0.0
10/05/2023,00:19:35,-0.001,0.0,0.0,0.0
10/05/2023,00:20:58,0.000,0.0,0.0,0.0
10/05/2023,00:22:35,0.001,0.0,0.0,0.0
10/05/2023,00:23:35,0.000,0.0,0.0,0.0
10/05/2023,00:24:35,0.001,0.0,0.0,0.0
10/05/2023,00:25:35,0.001,0.0,0.0,0.0
10/05/2023,00:26:36,0.001,0.0,0.0,0.0
10/05/2023,00:27:36,-0.001,0.0,0.0,0.0
10/05/2023,00:28:35,0.000,0.0,0.0,0.0
10/05/2023,00:29:35,-0.000,0.0,0.0,0.0
10/05/2023,00:30:35,0.000,0.0,0.0,0.0
10/05/2023,00:31:35,0.000,0.0,0.0,0.0
10/05/2023,00:32:35,0.000,0.0,0.0,0.0
10/05/2023,00:33:35,0.000,0.0,0.0,0.0
10/05/2023,00:34:36,-0.001,0.0,0.0,0.0
10/05/2023,00:35:36,0.001,0.0,0.0,0.0
10/05/2023,00:36:35,0.000,0.0,0.0,0.0
10/05/2023,00:37:35,0.001,0.0,0.0,0.0
10/05/2023,00:38:35,-0.001,0.0,0.0,0.0
10/05/2023,00:39:35,0.000,0.0,0.0,0.0
10/05/2023,00:40:35,0.000,0.0,0.0,0.0
10/05/2023,00:41:35,0.000,0.0,0.0,0.0
10/05/2023,00:42:35,0.000,0.0,0.0,0.0
10/05/2023,00:43:35,0.000,0.0,0.0,0.0
10/05/2023,00:44:35,0.001,0.0,0.0,0.0
10/05/2023,00:45:35,0.000,0.0,0.0,0.0
10/05/2023,00:46:35,0.000,0.0,0.0,0.0
10/05/2023,00:47:35,0.000,0.0,0.0,0.0
10/05/2023,00:48:36,0.000,0.0,0.0,0.0
10/05/2023,00:49:36,0.000,0.0,0.0,0.0
10/05/2023,00:50:36,0.000,0.0,0.0,0.0
10/05/2023,00:51:36,0.000,0.0,0.0,0.0
10/05/2023,00:52:36,0.000,0.0,0.0,0.0
10/05/2023,00:53:35,-0.000,0.0,0.0,0.0
10/05/2023,00:54:35,0.000,0.0,0.0,0.0
10/05/2023,00:55:35,-0.000,0.0,0.0,0.0
10/05/2023,00:56:36,-0.001,0.0,0.0,0.0
10/05/2023,00:57:36,0.001,0.0,0.0,0.0
10/05/2023,00:58:36,0.000,0.0,0.0,0.0
10/05/2023,00:59:37,0.000,0.0,0.0,0.0
10/05/2023,01:00:36,-0.001,0.0,0.0,0.0
10/05/2023,01:01:35,-0.000,0.0,0.0,0.0
10/05/2023,01:02:35,0.000,0.0,0.0,0.0
10/05/2023,01:03:35,0.001,0.0,0.0,0.0
10/05/2023,01:04:35,0.000,0.0,0.0,0.0
10/05/2023,01:05:35,0.000,0.0,0.0,0.0
10/05/2023,01:06:36,0.000,0.0,0.0,0.0
10/05/2023,01:07:35,0.001,0.0,0.0,0.0
10/05/2023,01:08:35,0.000,0.0,0.0,0.0
10/05/2023,01:09:35,-0.000,0.0,0.0,0.0
10/05/2023,01:10:36,0.000,0.0,0.0,0.0
10/05/2023,01:11:36,0.000,0.0,0.0,0.0
10/05/2023,01:12:36,0.000,0.0,0.0,0.0
10/05/2023,01:13:36,0.001,0.0,0.0,0.0
10/05/2023,01:14:36,0.001,0.0,0.0,0.0
10/05/2023,01:15:35,0.001,0.0,0.0,0.0
10/05/2023,01:16:36,0.000,0.0,0.0,0.0
10/05/2023,01:17:36,0.001,0.0,0.0,0.0
10/05/2023,01:18:36,-0.001,0.0,0.0,0.0
10/05/2023,01:19:35,0.000,0.0,0.0,0.0
10/05/2023,01:20:35,0.000,0.0,0.0,0.0
10/05/2023,01:21:35,0.001,0.0,0.0,0.0
10/05/2023,01:22:35,0.000,0.0,0.0,0.0
10/05/2023,01:23:36,0.000,0.0,0.0,0.0
10/05/2023,01:24:36,-0.000,0.0,0.0,0.0
10/05/2023,01:25:35,0.001,0.0,0.0,0.0
10/05/2023,01:26:35,0.000,0.0,0.0,0.0
10/05/2023,01:27:36,0.000,0.0,0.0,0.0
10/05/2023,01:28:35,0.000,0.0,0.0,0.0
10/05/2023,01:29:35,0.001,0.0,0.0,0.0
10/05/2023,01:30:36,0.000,0.0,0.0,0.0
10/05/2023,01:31:36,0.000,0.0,0.0,0.0
10/05/2023,01:32:36,0.001,0.0,0.0,0.0
10/05/2023,01:33:36,0.000,0.0,0.0,0.0
10/05/2023,01:34:36,0.001,0.0,0.0,0.0
10/05/2023,01:35:35,0.000,0.0,0.0,0.0
10/05/2023,01:36:35,0.000,0.0,0.0,0.0
10/05/2023,01:37:35,0.000,0.0,0.0,0.0
10/05/2023,01:38:58,0.001,0.0,0.0,0.0
10/05/2023,01:40:36,0.001,0.0,0.0,0.0
10/05/2023,01:41:35,0.000,0.0,0.0,0.0
10/05/2023,01:42:35,0.000,0.0,0.0,0.0
10/05/2023,01:43:35,0.000,0.0,0.0,0.0
10/05/2023,01:44:35,-0.000,0.0,0.0,0.0
10/05/2023,01:45:36,-0.001,0.0,0.0,0.0
10/05/2023,01:46:36,-0.000,0.0,0.0,0.0
10/05/2023,01:47:35,0.000,0.0,0.0,0.0
10/05/2023,01:48:35,0.000,0.0,0.0,0.0
10/05/2023,01:49:36,0.000,0.0,0.0,0.0
10/05/2023,01:50:36,0.000,0.0,0.0,0.0
10/05/2023,01:51:35,-0.000,0.0,0.0,0.0
10/05/2023,01:52:36,0.001,0.0,0.0,0.0
10/05/2023,01:53:36,0.001,0.0,0.0,0.0
10/05/2023,01:54:36,0.000,0.0,0.0,0.0
10/05/2023,01:55:36,0.000,0.0,0.0,0.0
10/05/2023,01:56:35,0.000,0.0,0.0,0.0
10/05/2023,01:57:35,0.000,0.0,0.0,0.0
10/05/2023,01:58:35,0.000,0.0,0.0,0.0
10/05/2023,01:59:36,0.000,0.0,0.0,0.0
10/05/2023,02:00:36,0.000,0.0,0.0,0.0
10/05/2023,02:01:35,-0.001,0.0,0.0,0.0
10/05/2023,02:02:36,-0.001,0.0,0.0,0.0
10/05/2023,02:03:36,-0.000,0.0,0.0,0.0
10/05/2023,02:04:35,0.000,0.0,0.0,0.0
10/05/2023,02:05:35,0.000,0.0,0.0,0.0
10/05/2023,02:06:35,-0.001,0.0,0.0,0.0
10/05/2023,02:07:36,0.000,0.0,0.0,0.0
10/05/2023,02:08:36,0.000,0.0,0.0,0.0
10/05/2023,02:09:35,0.000,0.0,0.0,0.0
10/05/2023,02:10:35,0.000,0.0,0.0,0.0
10/05/2023,02:11:36,0.000,0.0,0.0,0.0
10/05/2023,02:12:36,0.000,0.0,0.0,0.0
10/05/2023,02:13:36,0.001,0.0,0.0,0.0
10/05/2023,02:14:36,-0.001,0.0,0.0,0.0
10/05/2023,02:15:36,-0.000,0.0,0.0,0.0
10/05/2023,02:16:36,0.000,0.0,0.0,0.0
10/05/2023,02:17:35,0.000,0.0,0.0,0.0
10/05/2023,02:18:35,0.000,0.0,0.0,0.0
10/05/2023,02:19:36,0.000,0.0,0.0,0.0
10/05/2023,02:20:35,0.000,0.0,0.0,0.0
10/05/2023,02:21:36,0.001,0.0,0.0,0.0
10/05/2023,02:22:35,0.000,0.0,0.0,0.0
10/05/2023,02:23:36,0.000,0.0,0.0,0.0
10/05/2023,02:24:35,0.001,0.0,0.0,0.0
10/05/2023,02:25:35,-0.000,0.0,0.0,0.0
10/05/2023,02:26:35,0.001,0.0,0.0,0.0
10/05/2023,02:27:35,0.001,0.0,0.0,0.0
10/05/2023,02:28:36,0.001,0.0,0.0,0.0
10/05/2023,02:29:35,0.001,0.0,0.0,0.0
10/05/2023,02:30:35,0.000,0.0,0.0,0.0
10/05/2023,02:31:36,0.001,0.0,0.0,0.0
10/05/2023,02:32:36,0.001,0.0,0.0,0.0
10/05/2023,02:33:36,0.001,0.0,0.0,0.0
10/05/2023,02:34:35,0.001,0.0,0.0,0.0
10/05/2023,02:35:35,0.001,0.0,0.0,0.0
10/05/2023,02:36:36,0.001,0.0,0.0,0.0
10/05/2023,02:37:36,0.001,0.0,0.0,0.0
10/05/2023,02:38:36,-0.000,0.0,0.0,0.0
10/05/2023,02:39:35,0.000,0.0,0.0,0.0
10/05/2023,02:40:36,0.002,0.0,0.0,0.0
10/05/2023,02:41:36,0.001,0.0,0.0,0.0
10/05/2023,02:42:35,0.000,0.0,0.0,0.0
10/05/2023,02:43:36,0.001,0.0,0.0,0.0
10/05/2023,02:44:36,0.001,0.0,0.0,0.0
10/05/2023,02:45:36,0.001,0.0,0.0,0.0
10/05/2023,02:46:35,0.001,0.0,0.0,0.0
10/05/2023,02:47:35,0.000,0.0,0.0,0.0
10/05/2023,02:48:35,0.002,0.0,0.0,0.0
10/05/2023,02:49:35,0.001,0.0,0.0,0.0
10/05/2023,02:50:36,0.001,0.0,0.0,0.0
10/05/2023,02:51:36,0.001,0.0,0.0,0.0
10/05/2023,02:52:36,0.001,0.0,0.0,0.0
10/05/2023,02:53:36,0.001,0.0,0.0,0.0
10/05/2023,02:54:36,0.001,0.0,0.0,0.0
10/05/2023,02:55:35,-0.000,0.0,0.0,0.0
10/05/2023,02:56:36,0.001,0.0,0.0,0.0
10/05/2023,02:57:36,0.002,0.0,0.0,0.0
10/05/2023,02:58:36,0.001,0.0,0.0,0.0
10/05/2023,02:59:35,0.002,0.0,0.0,0.0
10/05/2023,03:00:36,0.001,0.0,0.0,0.0
10/05/2023,03:01:36,0.001,0.0,0.0,0.0
10/05/2023,03:02:36,0.001,0.0,0.0,0.0
10/05/2023,03:03:36,0.001,0.0,0.0,0.0
10/05/2023,03:04:35,-0.000,0.0,0.0,0.0
10/05/2023,03:05:36,0.001,0.0,0.0,0.0
10/05/2023,03:06:35,0.000,0.0,0.0,0.0
10/05/2023,03:07:36,0.001,0.0,0.0,0.0
10/05/2023,03:08:36,0.001,0.0,0.0,0.0
10/05/2023,03:09:36,0.001,0.0,0.0,0.0
10/05/2023,03:10:36,0.000,0.0,0.0,0.0
10/05/2023,03:11:36,0.001,0.0,0.0,0.0
10/05/2023,03:12:35,0.001,0.0,0.0,0.0
10/05/2023,03:13:36,0.001,0.0,0.0,0.0
10/05/2023,03:14:35,0.001,0.0,0.0,0.0
10/05/2023,03:15:35,0.000,0.0,0.0,0.0
10/05/2023,03:16:35,0.001,0.0,0.0,0.0
10/05/2023,03:17:36,-0.000,0.0,0.0,0.0
10/05/2023,03:18:36,0.001,0.0,0.0,0.0
10/05/2023,03:19:36,0.002,0.0,0.0,0.0
10/05/2023,03:20:35,0.001,0.0,0.0,0.0
10/05/2023,03:21:35,0.001,0.0,0.0,0.0
10/05/2023,03:22:35,0.001,0.0,0.0,0.0
10/05/2023,03:23:35,0.001,0.0,0.0,0.0
10/05/2023,03:24:36,0.002,0.0,0.0,0.0
10/05/2023,03:25:36,0.002,0.0,0.0,0.0
10/05/2023,03:26:36,0.002,0.0,0.0,0.0
10/05/2023,03:27:36,0.002,0.0,0.0,0.0
10/05/2023,03:28:36,0.000,0.0,0.0,0.0
10/05/2023,03:29:35,0.001,0.0,0.0,0.0
10/05/2023,03:30:36,0.002,0.0,0.0,0.0
10/05/2023,03:31:36,0.001,0.0,0.0,0.0
10/05/2023,03:32:35,0.001,0.0,0.0,0.0
10/05/2023,03:33:36,0.001,0.0,0.0,0.0
10/05/2023,03:34:36,0.001,0.0,0.0,0.0
10/05/2023,03:35:35,0.000,0.0,0.0,0.0
10/05/2023,03:36:35,0.001,0.0,0.0,0.0
10/05/2023,03:37:36,0.002,0.0,0.0,0.0
10/05/2023,03:38:36,0.002,0.0,0.0,0.0
10/05/2023,03:39:36,0.001,0.0,0.0,0.0
10/05/2023,03:40:35,0.001,0.0,0.0,0.0
10/05/2023,03:41:36,0.001,0.0,0.0,0.0
10/05/2023,03:42:35,0.001,0.0,0.0,0.0
10/05/2023,03:43:36,0.001,0.0,0.0,0.0
10/05/2023,03:44:37,0.001,0.0,0.0,0.0
10/05/2023,03:45:36,0.002,0.0,0.0,0.0
10/05/2023,03:46:36,0.000,0.0,0.0,0.0
10/05/2023,03:47:36,0.001,0.0,0.0,0.0
10/05/2023,03:48:36,0.001,0.0,0.0,0.0
10/05/2023,03:49:35,0.001,0.0,0.0,0.0
10/05/2023,03:50:36,0.001,0.0,0.0,0.0
10/05/2023,03:51:36,0.002,0.0,0.0,0.0
10/05/2023,03:52:36,0.000,0.0,0.0,0.0
10/05/2023,03:53:35,0.001,0.0,0.0,0.0
10/05/2023,03:54:36,0.001,0.0,0.0,0.0
10/05/2023,03:55:36,0.001,0.0,0.0,0.0
10/05/2023,03:56:35,0.001,0.0,0.0,0.0
10/05/2023,03:57:35,0.001,0.0,0.0,0.0
10/05/2023,03:58:35,0.001,0.0,0.0,0.0
10/05/2023,03:59:36,0.001,0.0,0.0,0.0
10/05/2023,04:00:36,0.001,0.0,0.0,0.0
10/05/2023,04:01:36,0.000,0.0,0.0,0.0
10/05/2023,04:02:36,0.002,0.0,0.0,0.0
10/05/2023,04:03:36,0.002,0.0,0.0,0.0
10/05/2023,04:04:35,0.002,0.0,0.0,0.0
10/05/2023,04:05:36,0.002,0.0,0.0,0.0
10/05/2023,04:06:36,0.002,0.0,0.0,0.0
10/05/2023,04:07:36,0.002,0.0,0.0,0.0
10/05/2023,04:08:36,0.002,0.0,0.0,0.0
10/05/2023,04:09:36,0.002,0.0,0.0,0.0
10/05/2023,04:10:35,0.002,0.0,0.0,0.0
10/05/2023,04:11:36,0.002,0.0,0.0,0.0
10/05/2023,04:12:36,0.002,0.0,0.0,0.0
10/05/2023,04:13:35,0.002,0.0,0.0,0.0
10/05/2023,04:14:35,0.002,0.0,0.0,0.0
10/05/2023,04:15:36,0.003,0.0,0.0,0.0
10/05/2023,04:16:36,0.003,0.0,0.0,0.0
10/05/2023,04:17:36,0.003,0.0,0.0,0.0
10/05/2023,04:18:36,0.002,0.0,0.0,0.0
10/05/2023,04:19:36,0.003,0.0,0.0,0.0
10/05/2023,04:20:36,0.003,0.0,0.0,0.0
10/05/2023,04:21:36,0.003,0.0,0.0,0.0
10/05/2023,04:22:36,0.003,0.0,0.0,0.0
10/05/2023,04:23:35,0.003,0.0,0.0,0.0
10/05/2023,04:24:35,0.004,0.0,0.0,0.0
10/05/2023,04:25:36,0.004,0.0,0.0,0.0
10/05/2023,04:26:36,0.004,0.0,0.0,0.0
10/05/2023,04:27:36,0.005,0.0,0.0,0.0
10/05/2023,04:28:36,0.005,0.0,0.0,0.0
10/05/2023,04:29:36,0.005,0.0,0.0,0.0
10/05/2023,04:30:36,0.005,0.0,0.0,0.0
10/05/2023,04:31:35,0.005,0.0,0.0,0.0
10/05/2023,04:32:36,0.006,0.0,0.0,0.0
10/05/2023,04:33:36,0.006,0.0,0.0,0.0
10/05/2023,04:34:35,0.006,0.0,0.0,0.0
10/05/2023,04:35:35,0.006,0.0,0.0,0.0
10/05/2023,04:36:36,0.006,0.0,0.0,0.0
10/05/2023,04:37:36,0.007,0.0,0.0,0.0
10/05/2023,04:38:36,0.007,0.0,0.0,0.0
10/05/2023,04:39:36,0.007,0.0,0.001,0.001
10/05/2023,04:40:36,0.006,0.0,0.001,0.0
10/05/2023,04:41:36,0.007,0.0,0.001,0.0
10/05/2023,04:42:35,0.007,0.0,0.001,0.0
10/05/2023,04:43:36,0.009,0.0,0.001,0.0
10/05/2023,04:44:36,0.007,0.0,0.001,0.0
10/05/2023,04:45:36,0.008,0.0,0.001,0.0
10/05/2023,04:46:36,0.009,0.0,0.001,0.0
10/05/2023,04:47:35,0.008,0.0,0.002,0.001
10/05/2023,04:48:36,0.008,0.0,0.002,0.0
10/05/2023,04:49:36,0.009,0.0,0.002,0.0
10/05/2023,04:50:36,0.009,0.0,0.002,0.0
10/05/2023,04:51:35,0.009,0.0,0.002,0.0
10/05/2023,04:52:36,0.009,0.0,0.002,0.0
10/05/2023,04:53:36,0.010,0.0,0.003,0.001
10/05/2023,04:54:36,0.009,0.0,0.003,0.0
10/05/2023,04:55:36,0.010,0.0,0.003,0.0
10/05/2023,04:56:35,0.010,0.0,0.003,0.0
10/05/2023,04:57:36,0.010,0.0,0.003,0.0
10/05/2023,04:58:36,0.010,0.0,0.003,0.0
10/05/2023,04:59:36,0.011,0.0,0.004,0.001
10/05/2023,05:00:36,0.011,0.0,0.004,0.0
10/05/2023,05:01:36,0.013,0.0,0.004,0.0
10/05/2023,05:02:36,0.012,0.0,0.004,0.0
10/05/2023,05:03:36,0.012,0.0,0.004,0.0
10/05/2023,05:04:35,0.014,0.0,0.005,0.001
10/05/2023,05:05:36,0.014,0.0,0.005,0.0
10/05/2023,05:06:36,0.013,0.0,0.005,0.0
10/05/2023,05:07:36,0.013,0.0,0.005,0.0
10/05/2023,05:08:36,0.014,0.0,0.005,0.0
10/05/2023,05:09:36,0.015,0.0,0.006,0.001
10/05/2023,05:10:36,0.015,0.0,0.006,0.0
10/05/2023,05:11:36,0.015,0.0,0.006,0.0
10/05/2023,05:12:36,0.016,0.0,0.006,0.0
10/05/2023,05:13:35,0.015,0.0,0.007,0.001
10/05/2023,05:14:36,0.016,0.0,0.007,0.0
10/05/2023,05:15:36,0.016,0.0,0.007,0.0
10/05/2023,05:16:36,0.017,0.0,0.008,0.001
10/05/2023,05:17:36,0.019,0.0,0.008,0.0
10/05/2023,05:18:36,0.019,0.0,0.008,0.0
10/05/2023,05:19:36,0.019,0.0,0.008,0.0
10/05/2023,05:20:36,0.018,0.0,0.009,0.001
10/05/2023,05:21:36,0.019,0.0,0.009,0.0
10/05/2023,05:22:36,0.021,0.0,0.009,0.0
10/05/2023,05:23:36,0.021,0.0,0.01,0.001
10/05/2023,05:24:36,0.022,0.0,0.01,0.0
10/05/2023,05:25:35,0.024,0.0,0.011,0.001
10/05/2023,05:26:35,0.025,0.0,0.011,0.0
10/05/2023,05:27:36,0.027,0.0,0.011,0.0
10/05/2023,05:28:36,0.028,0.0,0.012,0.001
10/05/2023,05:29:36,0.031,0.0,0.012,0.0
10/05/2023,05:30:36,0.032,0.0,0.013,0.001
10/05/2023,05:31:35,0.033,0.0,0.013,0.0
10/05/2023,05:32:36,0.034,0.0,0.014,0.001
10/05/2023,05:33:36,0.032,0.0,0.014,0.0
10/05/2023,05:34:36,0.031,0.0,0.015,0.001
10/05/2023,05:35:36,0.031,0.0,0.016,0.001
10/05/2023,05:36:35,0.033,0.0,0.016,0.0
10/05/2023,05:37:36,0.032,0.0,0.017,0.001
10/05/2023,05:38:35,0.036,0.0,0.017,0.0
10/05/2023,05:39:36,0.036,0.0,0.018,0.001
10/05/2023,05:40:36,0.035,0.0,0.018,0.0
10/05/2023,05:41:36,0.038,0.0,0.019,0.001
10/05/2023,05:42:36,0.040,0.0,0.02,0.001
10/05/2023,05:43:36,0.044,0.0,0.02,0.0
10/05/2023,05:44:36,0.046,0.0,0.021,0.001
10/05/2023,05:45:35,0.047,0.0,0.022,0.001
10/05/2023,05:46:36,0.049,0.0,0.023,0.001
10/05/2023,05:47:36,0.052,0.0,0.023,0.0
10/05/2023,05:48:36,0.053,0.0,0.024,0.001
10/05/2023,05:49:36,0.053,0.0,0.025,0.001
10/05/2023,05:50:36,0.053,0.0,0.026,0.001
10/05/2023,05:51:36,0.053,0.0,0.027,0.001
10/05/2023,05:52:36,0.056,0.0,0.028,0.001
10/05/2023,05:53:36,0.060,0.0,0.029,0.001
10/05/2023,05:54:35,0.059,0.0,0.03,0.001
10/05/2023,05:55:37,0.060,0.0,0.031,0.001
10/05/2023,05:56:36,0.058,0.0,0.032,0.001
10/05/2023,05:57:36,0.060,0.0,0.033,0.001
10/05/2023,05:58:36,0.067,0.0,0.034,0.001
10/05/2023,05:59:36,0.068,0.0,0.035,0.001
10/05/2023,06:00:36,0.065,0.0,0.036,0.001
10/05/2023,06:01:35,0.065,0.0,0.037,0.001
10/05/2023,06:02:35,0.075,0.0,0.038,0.001
10/05/2023,06:03:35,0.075,0.0,0.04,0.002
10/05/2023,06:04:36,0.070,0.0,0.041,0.001
10/05/2023,06:05:37,0.072,0.0,0.042,0.001
10/05/2023,06:06:36,0.077,0.0,0.043,0.001
10/05/2023,06:07:36,0.078,0.0,0.045,0.002
10/05/2023,06:08:36,0.081,0.0,0.046,0.001
10/05/2023,06:09:36,0.088,0.0,0.047,0.001
10/05/2023,06:10:36,0.089,0.0,0.049,0.002
10/05/2023,06:11:36,0.087,0.0,0.05,0.001
10/05/2023,06:12:36,0.087,0.0,0.052,0.002
10/05/2023,06:13:36,0.082,0.0,0.053,0.001
10/05/2023,06:14:36,0.075,0.0,0.054,0.001
10/05/2023,06:15:36,0.078,0.0,0.056,0.002
10/05/2023,06:16:36,0.082,0.0,0.057,0.001
10/05/2023,06:17:35,0.071,0.0,0.058,0.001
10/05/2023,06:18:35,0.067,0.0,0.059,0.001
10/05/2023,06:19:36,0.070,0.0,0.061,0.002
10/05/2023,06:20:36,0.073,0.0,0.062,0.001
10/05/2023,06:21:36,0.074,0.0,0.063,0.001
10/05/2023,06:22:36,0.076,0.0,0.064,0.001
10/05/2023,06:23:36,0.082,0.0,0.066,0.002
10/05/2023,06:24:36,0.085,0.0,0.067,0.001
10/05/2023,06:25:37,0.093,0.0,0.068,0.001
10/05/2023,06:26:37,0.094,0.0,0.07,0.002
10/05/2023,06:27:36,0.094,0.0,0.072,0.002
10/05/2023,06:28:35,0.094,0.0,0.073,0.001
10/05/2023,06:29:36,0.092,0.0,0.075,0.002
10/05/2023,06:30:35,0.096,0.0,0.076,0.001
10/05/2023,06:31:58,0.100,0.0,0.079,0.003
10/05/2023,06:33:37,0.092,0.0,0.081,0.002
10/05/2023,06:34:36,0.091,0.0,0.083,0.002
10/05/2023,06:35:36,0.098,0.0,0.084,0.001
10/05/2023,06:36:36,0.097,0.0,0.086,0.002
10/05/2023,06:37:35,0.103,0.0,0.088,0.002
10/05/2023,06:38:36,0.094,0.0,0.089,0.001
10/05/2023,06:39:36,0.100,0.0,0.091,0.002
10/05/2023,06:40:36,0.117,0.0,0.093,0.002
10/05/2023,06:41:36,0.119,0.0,0.095,0.002
10/05/2023,06:42:36,0.125,0.0,0.097,0.002
10/05/2023,06:43:36,0.119,0.0,0.099,0.002
10/05/2023,06:44:36,0.133,0.0,0.101,0.002
10/05/2023,06:45:36,0.151,0.0,0.103,0.002
10/05/2023,06:46:36,0.146,0.0,0.106,0.003
10/05/2023,06:47:36,0.148,0.0,0.108,0.002
10/05/2023,06:48:36,0.158,0.0,0.111,0.003
10/05/2023,06:49:36,0.161,0.0,0.113,0.002
10/05/2023,06:50:36,0.170,0.0,0.116,0.003
10/05/2023,06:51:35,0.172,0.0,0.119,0.003
10/05/2023,06:52:36,0.180,0.0,0.122,0.003
10/05/2023,06:53:36,0.197,0.0,0.125,0.003
10/05/2023,06:54:36,0.195,0.0,0.128,0.003
10/05/2023,06:55:36,0.210,0.0,0.132,0.004
10/05/2023,06:56:36,0.220,1.0,0.135,0.003
10/05/2023,06:57:36,0.259,1.0,0.139,0.004
10/05/2023,06:58:36,0.254,1.0,0.143,0.004
10/05/2023,06:59:36,0.235,1.0,0.147,0.004
10/05/2023,07:00:36,0.239,1.0,0.152,0.005
10/05/2023,07:01:36,0.244,1.0,0.156,0.004
10/05/2023,07:02:36,0.251,1.0,0.16,0.004
10/05/2023,07:03:36,0.268,1.0,0.164,0.004
10/05/2023,07:04:36,0.248,1.0,0.168,0.004
10/05/2023,07:05:36,0.253,1.0,0.172,0.004
10/05/2023,07:06:36,0.256,1.0,0.177,0.005
10/05/2023,07:07:36,0.259,1.0,0.181,0.004
10/05/2023,07:08:36,0.249,1.0,0.185,0.004
10/05/2023,07:09:36,0.255,1.0,0.19,0.005
10/05/2023,07:10:36,0.263,1.0,0.194,0.004
10/05/2023,07:11:36,0.283,1.0,0.198,0.004
10/05/2023,07:12:37,0.340,1.0,0.203,0.005
10/05/2023,07:13:36,0.301,1.0,0.209,0.006
10/05/2023,07:14:36,0.304,1.0,0.214,0.005
10/05/2023,07:15:36,0.302,1.0,0.219,0.005
10/05/2023,07:16:36,0.290,1.0,0.224,0.005
10/05/2023,07:17:36,0.354,1.0,0.229,0.005
10/05/2023,07:18:36,0.327,1.0,0.235,0.006
10/05/2023,07:19:36,0.344,1.0,0.241,0.006
10/05/2023,07:20:36,0.304,1.0,0.246,0.005
10/05/2023,07:21:36,0.312,1.0,0.251,0.005
10/05/2023,07:22:36,0.369,1.0,0.257,0.006
10/05/2023,07:23:36,0.352,1.0,0.263,0.006
10/05/2023,07:24:36,0.339,1.0,0.269,0.006
10/05/2023,07:25:36,0.338,1.0,0.275,0.006
10/05/2023,07:26:36,0.390,1.0,0.281,0.006
10/05/2023,07:27:36,0.335,1.0,0.287,0.006
10/05/2023,07:28:36,0.408,1.0,0.293,0.006
10/05/2023,07:29:36,0.388,1.0,0.299,0.006
10/05/2023,07:30:36,0.327,1.0,0.305,0.006
10/05/2023,07:31:36,0.347,1.0,0.311,0.006
10/05/2023,07:32:36,0.347,1.0,0.316,0.005
10/05/2023,07:33:36,0.387,1.0,0.323,0.007
10/05/2023,07:34:36,0.439,1.0,0.33,0.007
10/05/2023,07:35:36,0.446,1.0,0.337,0.007
10/05/2023,07:36:36,0.382,1.0,0.344,0.007
10/05/2023,07:37:36,0.409,1.0,0.351,0.007
10/05/2023,07:38:36,0.374,1.0,0.357,0.006
10/05/2023,07:39:36,0.382,1.0,0.364,0.007
10/05/2023,07:40:36,0.486,1.0,0.371,0.007
10/05/2023,07:41:36,0.430,1.0,0.379,0.008
10/05/2023,07:42:36,0.446,1.0,0.386,0.007
10/05/2023,07:43:36,0.508,1.0,0.395,0.009
10/05/2023,07:44:36,0.520,1.0,0.403,0.008
10/05/2023,07:45:36,0.521,1.0,0.412,0.009
10/05/2023,07:46:36,0.537,1.0,0.421,0.009
10/05/2023,07:47:36,0.510,1.0,0.43,0.009
10/05/2023,07:48:36,0.451,1.0,0.437,0.007
10/05/2023,07:49:36,0.548,1.0,0.446,0.009
10/05/2023,07:50:36,0.556,1.0,0.455,0.009
10/05/2023,07:51:36,0.564,1.0,0.465,0.01
10/05/2023,07:52:36,0.568,1.0,0.474,0.009
10/05/2023,07:53:36,0.573,1.0,0.483,0.009
10/05/2023,07:54:36,0.584,1.0,0.493,0.01
10/05/2023,07:55:37,0.590,1.0,0.503,0.01
10/05/2023,07:56:36,0.600,1.0,0.513,0.01
10/05/2023,07:57:36,0.607,1.0,0.523,0.01
10/05/2023,07:58:36,0.614,1.0,0.533,0.01
10/05/2023,07:59:36,0.622,1.0,0.543,0.01
10/05/2023,08:00:36,0.624,1.0,0.554,0.011
10/05/2023,08:01:36,0.609,1.0,0.564,0.01
10/05/2023,08:02:36,0.637,1.0,0.575,0.011
10/05/2023,08:03:36,0.646,1.0,0.585,0.01
10/05/2023,08:04:36,0.653,2.0,0.596,0.011
10/05/2023,08:05:37,0.664,2.0,0.607,0.011
10/05/2023,08:06:37,0.669,2.0,0.618,0.011
10/05/2023,08:07:37,0.677,2.0,0.629,0.011
10/05/2023,08:08:36,0.683,2.0,0.641,0.012
10/05/2023,08:09:36,0.693,2.0,0.652,0.011
10/05/2023,08:10:36,0.690,2.0,0.664,0.012
10/05/2023,08:11:37,0.709,2.0,0.676,0.012
10/05/2023,08:12:37,0.721,2.0,0.687,0.011
10/05/2023,08:13:37,0.586,1.0,0.699,0.012
10/05/2023,08:14:36,0.746,2.0,0.711,0.012
10/05/2023,08:15:36,0.626,1.0,0.722,0.011
10/05/2023,08:16:36,0.515,1.0,0.731,0.009
10/05/2023,08:17:36,0.632,1.0,0.74,0.009
10/05/2023,08:18:36,0.562,1.0,0.75,0.01
10/05/2023,08:19:38,0.677,2.0,0.761,0.011
10/05/2023,08:20:37,0.713,2.0,0.772,0.011
10/05/2023,08:21:36,0.616,1.0,0.784,0.012
10/05/2023,08:22:36,0.615,1.0,0.794,0.01
10/05/2023,08:23:36,0.663,2.0,0.804,0.01
10/05/2023,08:24:36,0.826,2.0,0.817,0.013
10/05/2023,08:25:36,0.660,2.0,0.83,0.013
10/05/2023,08:26:37,0.583,1.0,0.84,0.01
10/05/2023,08:27:36,0.661,2.0,0.85,0.01
10/05/2023,08:28:36,0.661,2.0,0.863,0.013
10/05/2023,08:29:36,0.853,2.0,0.876,0.013
10/05/2023,08:30:36,0.853,2.0,0.89,0.014
10/05/2023,08:31:37,0.864,2.0,0.904,0.014
10/05/2023,08:32:36,0.867,2.0,0.918,0.014
10/05/2023,08:33:36,0.894,2.0,0.933,0.015
10/05/2023,08:34:36,0.882,2.0,0.948,0.015
10/05/2023,08:35:37,0.829,2.0,0.961,0.013
10/05/2023,08:36:37,0.688,2.0,0.973,0.012
10/05/2023,08:37:37,0.809,2.0,0.987,0.014
10/05/2023,08:38:36,0.918,2.0,1.003,0.016
10/05/2023,08:39:37,0.924,2.0,1.018,0.015
10/05/2023,08:40:36,0.949,2.0,1.034,0.016
10/05/2023,08:41:36,0.962,2.0,1.049,0.015
10/05/2023,08:42:37,0.966,2.0,1.065,0.016
10/05/2023,08:43:36,0.969,2.0,1.081,0.016
10/05/2023,08:44:36,0.980,2.0,1.098,0.017
10/05/2023,08:45:36,0.990,2.0,1.114,0.016
10/05/2023,08:46:36,1.004,2.0,1.131,0.017
10/05/2023,08:47:36,1.008,2.0,1.147,0.016
10/05/2023,08:48:36,1.020,2.0,1.164,0.017
10/05/2023,08:49:36,1.034,2.0,1.181,0.017
10/05/2023,08:50:37,1.040,2.0,1.199,0.018
10/05/2023,08:51:36,1.058,2.0,1.216,0.017
10/05/2023,08:52:37,1.072,2.0,1.234,0.018
10/05/2023,08:53:36,1.090,3.0,1.252,0.018
10/05/2023,08:54:37,1.109,3.0,1.27,0.018
10/05/2023,08:55:36,1.096,3.0,1.289,0.019
10/05/2023,08:56:36,0.892,2.0,1.305,0.016
10/05/2023,08:57:36,0.817,2.0,1.319,0.014
10/05/2023,08:58:36,0.997,2.0,1.336,0.017
10/05/2023,08:59:36,1.129,3.0,1.354,0.018
10/05/2023,09:00:37,1.149,3.0,1.373,0.019
10/05/2023,09:01:37,1.166,3.0,1.392,0.019
10/05/2023,09:02:36,1.006,2.0,1.411,0.019
10/05/2023,09:03:36,1.192,3.0,1.43,0.019
10/05/2023,09:04:37,1.206,3.0,1.45,0.02
10/05/2023,09:05:36,1.209,3.0,1.47,0.02
10/05/2023,09:06:36,1.230,3.0,1.49,0.02
10/05/2023,09:07:36,0.791,2.0,1.507,0.017
10/05/2023,09:08:37,1.232,3.0,1.523,0.016
10/05/2023,09:09:36,1.202,3.0,1.543,0.02
10/05/2023,09:10:37,1.138,3.0,1.562,0.019
10/05/2023,09:11:37,0.693,2.0,1.575,0.013
10/05/2023,09:12:36,0.691,2.0,1.586,0.011
10/05/2023,09:13:36,0.708,2.0,1.598,0.012
10/05/2023,09:14:37,0.718,2.0,1.61,0.012
10/05/2023,09:15:37,0.734,2.0,1.622,0.012
10/05/2023,09:16:36,1.128,3.0,1.639,0.017
10/05/2023,09:17:37,1.015,2.0,1.655,0.016
10/05/2023,09:18:36,1.086,2.0,1.673,0.018
10/05/2023,09:19:36,0.958,2.0,1.689,0.016
10/05/2023,09:20:36,0.879,2.0,1.705,0.016
10/05/2023,09:21:37,0.800,2.0,1.719,0.014
10/05/2023,09:22:36,0.825,2.0,1.733,0.014
10/05/2023,09:23:36,0.843,2.0,1.747,0.014
10/05/2023,09:24:36,1.325,3.0,1.764,0.017
10/05/2023,09:25:36,1.094,2.0,1.785,0.021
10/05/2023,09:26:36,1.356,3.0,1.804,0.019
10/05/2023,09:27:36,1.252,3.0,1.826,0.022
10/05/2023,09:28:38,1.149,3.0,1.847,0.021
10/05/2023,09:29:37,1.322,3.0,1.868,0.021
10/05/2023,09:30:36,1.183,3.0,1.889,0.021
10/05/2023,09:31:36,1.415,3.0,1.91,0.021
10/05/2023,09:32:37,1.069,2.0,1.933,0.023
10/05/2023,09:33:37,0.873,2.0,1.948,0.015
10/05/2023,09:34:36,1.148,3.0,1.964,0.016
10/05/2023,09:35:36,1.430,3.0,1.987,0.023
10/05/2023,09:36:37,1.470,3.0,2.01,0.023
10/05/2023,09:37:37,1.516,3.0,2.034,0.024
10/05/2023,09:38:36,1.495,3.0,2.059,0.025
10/05/2023,09:39:37,1.539,4.0,2.084,0.025
10/05/2023,09:40:37,1.512,3.0,2.11,0.026
10/05/2023,09:41:36,1.241,3.0,2.133,0.023
10/05/2023,09:42:37,1.054,2.0,2.151,0.018
10/05/2023,09:43:36,1.084,2.0,2.17,0.019
10/05/2023,09:44:36,0.915,2.0,2.187,0.017
10/05/2023,09:45:37,0.919,2.0,2.203,0.016
10/05/2023,09:46:37,0.879,2.0,2.218,0.015
10/05/2023,09:47:37,0.885,2.0,2.233,0.015
10/05/2023,09:48:36,0.913,2.0,2.248,0.015
10/05/2023,09:49:37,1.511,3.0,2.269,0.021
10/05/2023,09:50:37,0.981,2.0,2.29,0.021
10/05/2023,09:51:36,1.446,3.0,2.314,0.024
10/05/2023,09:52:36,1.573,4.0,2.34,0.026
10/05/2023,09:53:36,1.278,3.0,2.361,0.021
10/05/2023,09:54:36,0.837,2.0,2.382,0.021
10/05/2023,09:55:36,0.788,2.0,2.395,0.013
10/05/2023,09:56:37,0.795,2.0,2.408,0.013
10/05/2023,09:57:36,0.818,2.0,2.422,0.014
10/05/2023,09:58:37,0.847,2.0,2.436,0.014
10/05/2023,09:59:37,0.884,2.0,2.45,0.014
10/05/2023,10:00:36,1.157,3.0,2.466,0.016
10/05/2023,10:01:36,1.684,4.0,2.491,0.025